This demonstration page uses our WeatherBlox Daily Observations layout. Learn more.

Left ArrowRight Arrow

Hourly Observations for May 2, 2015

Temp ( °F °C ) Dew Point ( °F °C ) Humidity (%) Winds ( mph kmh ) Pressure ( in mb ) Visibility ( mi km ) Precip ( " mm )
12:53 am 00:53 Clear 48 8.9 44 6.7 86 86 WNW 3 6 30.09 1019 10 16 0.00 0.00
1:53 am 01:53 Clear 49 9.4 44 6.7 83 83 Calm 30.09 1019 10 16 0.00 0.00
2:53 am 02:53 Clear 46 7.8 43 6.1 89 89 Calm 30.09 1019 10 16 0.00 0.00
3:53 am 03:53 Clear 48 8.9 44 6.7 86 86 Calm 30.09 1019 10 16 0.00 0.00
4:53 am 04:53 Clear 46 7.8 44 6.7 93 93 Calm 30.10 1019 10 16 0.00 0.00
5:53 am 05:53 Clear 46 7.8 44 6.7 93 93 WNW 3 6 30.11 1020 10 16 0.00 0.00
6:53 am 06:53 Sunny 45 7.2 44 6.7 97 97 Calm 30.12 1020 9 14 0.00 0.00
7:53 am 07:53 Sunny 50 10 47 8.3 89 89 Calm 30.13 1020 10 16 0.00 0.00
8:53 am 08:53 Sunny 53 11.7 47 8.3 80 80 W 3 6 30.15 1021 10 16 0.00 0.00
9:53 am 09:53 Sunny 60 15.6 47 8.3 62 62 Calm 30.14 1021 10 16 0.00 0.00
10:53 am 10:53 Sunny 66 18.9 48 8.9 52 52 Calm 30.14 1021 10 16 0.00 0.00
11:53 am 11:53 Sunny 71 21.7 46 7.8 41 41 Calm 30.13 1020 10 16 0.00 0.00
12:53 pm 12:53 Partly Cloudy 72 22.2 43 6.1 35 35 SSW 5 7 30.12 1020 10 16 0.00 0.00
1:53 pm 13:53 Mostly Cloudy 72 22.2 41 5 33 33 VRB 3 6 30.10 1019 10 16 0.00 0.00
2:53 pm 14:53 Sunny 76 24.4 44 6.7 32 32 Calm 30.08 1019 10 16 0.00 0.00
3:53 pm 15:53 Mostly Sunny 74 23.3 42 5.6 32 32 W 7 11 30.05 1018 10 16 0.00 0.00
4:53 pm 16:53 Sunny 78 25.6 45 7.2 31 31 VRB 3 6 30.03 1017 10 16 0.00 0.00
5:53 pm 17:53 Sunny 75 23.9 41 5 29 29 VRB 3 6 30.03 1017 10 16 0.00 0.00
6:53 pm 18:53 Sunny 74 23.3 42 5.6 32 32 WSW 5 7 30.03 1017 10 16 0.00 0.00
7:53 pm 19:53 Sunny 71 21.7 46 7.8 41 41 W 3 6 30.04 1017 10 16 0.00 0.00
8:53 pm 20:53 Clear 60 15.6 50 10 70 70 Calm 30.05 1018 10 16 0.00 0.00
9:53 pm 21:53 Clear 56 13.3 49 9.4 77 77 Calm 30.07 1018 10 16 0.00 0.00
10:53 pm 22:53 Clear 53 11.7 48 8.9 83 83 Calm 30.07 1018 10 16 0.00 0.00
11:53 pm 23:53 Clear 52 11.1 48 8.9 86 86 Calm 30.07 1018 10 16 0.00 0.00

Powered by AerisWeather